Time,TemperatureF,DewpointF,PressureIn,WindDirection,WindDirectionDegrees,WindSpeedMPH,WindSpeedGustMPH,Humidity,HourlyPrecipIn,Conditions,Clouds,dailyrainin,SoftwareType,DateUTC
2013-02-08 00:01:00,23.0,20.0,-100.00,WSW,241,5.0,11.0,87,-99.99,,,-99.99,,2013-02-08 08:01:00,
2013-02-08 00:11:00,23.0,20.0,-100.00,WSW,241,5.0,11.0,87,-99.99,,,-99.99,,2013-02-08 08:11:00,
2013-02-08 00:21:00,23.0,18.0,-100.00,WSW,254,8.0,14.0,83,-99.99,,,-99.99,,2013-02-08 08:21:00,
2013-02-08 00:32:00,23.0,18.0,-100.00,WSW,254,8.0,14.0,83,-99.99,,,-99.99,,2013-02-08 08:32:00,
2013-02-08 00:41:00,23.0,17.0,-100.00,WSW,257,7.0,13.0,76,-99.99,,,-99.99,,2013-02-08 08:41:00,
2013-02-08 00:52:00,23.0,17.0,-100.00,WSW,257,7.0,13.0,76,-99.99,,,-99.99,,2013-02-08 08:52:00,
2013-02-08 01:02:00,23.0,17.0,-100.00,WSW,257,7.0,13.0,76,-99.99,,,-99.99,,2013-02-08 09:02:00,
2013-02-08 01:21:00,23.0,15.0,-100.00,West,278,5.0,9.0,71,-99.99,,,-99.99,,2013-02-08 09:21:00,
2013-02-08 01:31:00,23.0,15.0,-100.00,West,278,5.0,9.0,71,-99.99,,,-99.99,,2013-02-08 09:31:00,
2013-02-08 01:42:00,23.0,15.0,-100.00,WNW,288,4.0,6.0,70,-99.99,,,-99.99,,2013-02-08 09:42:00,
2013-02-08 01:52:00,23.0,15.0,-100.00,WNW,288,4.0,6.0,70,-99.99,,,-99.99,,2013-02-08 09:52:00,
2013-02-08 02:01:00,23.0,15.0,-100.00,NNW,339,6.0,10.0,72,-99.99,,,-99.99,,2013-02-08 10:01:00,
2013-02-08 02:11:00,23.0,15.0,-100.00,NNW,339,6.0,10.0,72,-99.99,,,-99.99,,2013-02-08 10:11:00,
2013-02-08 02:22:00,22.0,15.0,-100.00,West,278,1.0,4.0,75,-99.99,,,-99.99,,2013-02-08 10:22:00,
2013-02-08 02:31:00,22.0,15.0,-100.00,West,278,1.0,4.0,75,-99.99,,,-99.99,,2013-02-08 10:31:00,
2013-02-08 02:41:00,22.0,14.0,-100.00,WNW,295,2.0,5.0,72,-99.99,,,-99.99,,2013-02-08 10:41:00,
2013-02-08 02:52:00,22.0,14.0,-100.00,WNW,295,2.0,5.0,72,-99.99,,,-99.99,,2013-02-08 10:52:00,
2013-02-08 03:01:00,20.0,13.0,-100.00,North,359,2.0,5.0,74,-99.99,,,-99.99,,2013-02-08 11:01:00,
2013-02-08 03:11:00,20.0,13.0,-100.00,North,359,2.0,5.0,74,-99.99,,,-99.99,,2013-02-08 11:11:00,
2013-02-08 03:21:00,20.0,13.0,-100.00,NNE,27,1.0,5.0,74,-99.99,,,-99.99,,2013-02-08 11:21:00,
2013-02-08 03:32:00,20.0,13.0,-100.00,NNE,27,1.0,5.0,74,-99.99,,,-99.99,,2013-02-08 11:32:00,
2013-02-08 03:41:00,21.0,14.0,-100.00,West,261,1.0,3.0,73,-99.99,,,-99.99,,2013-02-08 11:41:00,
2013-02-08 03:52:00,21.0,14.0,-100.00,West,261,1.0,3.0,73,-99.99,,,-99.99,,2013-02-08 11:52:00,
2013-02-08 04:01:00,21.0,14.0,-100.00,SW,232,1.0,6.0,75,-99.99,,,-99.99,,2013-02-08 12:01:00,
2013-02-08 04:11:00,21.0,14.0,-100.00,SW,232,1.0,6.0,75,-99.99,,,-99.99,,2013-02-08 12:11:00,
2013-02-08 04:22:00,20.0,13.0,-100.00,WNW,292,1.0,5.0,75,-99.99,,,-99.99,,2013-02-08 12:22:00,
2013-02-08 04:32:00,20.0,13.0,-100.00,WNW,292,1.0,5.0,75,-99.99,,,-99.99,,2013-02-08 12:32:00,
2013-02-08 04:42:00,20.0,13.0,-100.00,WNW,292,1.0,5.0,75,-99.99,,,-99.99,,2013-02-08 12:42:00,
2013-02-08 05:21:00,22.0,13.0,-100.00,WNW,289,2.0,5.0,66,-99.99,,,-99.99,,2013-02-08 13:21:00,
2013-02-08 05:32:00,22.0,13.0,-100.00,WNW,289,2.0,5.0,66,-99.99,,,-99.99,,2013-02-08 13:32:00,
2013-02-08 05:42:00,19.0,11.0,-100.00,NE,45,2.0,4.0,72,-99.99,,,-99.99,,2013-02-08 13:42:00,
2013-02-08 05:52:00,19.0,11.0,-100.00,NE,45,2.0,4.0,72,-99.99,,,-99.99,,2013-02-08 13:52:00,
2013-02-08 06:02:00,19.0,12.0,-100.00,WNW,285,2.0,5.0,73,-99.99,,,-99.99,,2013-02-08 14:02:00,
2013-02-08 06:11:00,19.0,12.0,-100.00,WNW,285,2.0,5.0,73,-99.99,,,-99.99,,2013-02-08 14:11:00,
2013-02-08 06:21:00,19.0,13.0,-100.00,WSW,243,3.0,5.0,79,-99.99,,,-99.99,,2013-02-08 14:21:00,
2013-02-08 06:32:00,19.0,13.0,-100.00,WSW,243,3.0,5.0,79,-99.99,,,-99.99,,2013-02-08 14:32:00,
2013-02-08 06:42:00,19.0,13.0,-100.00,WSW,243,3.0,5.0,79,-99.99,,,-99.99,,2013-02-08 14:42:00,
2013-02-08 07:02:00,19.0,13.0,-100.00,NNW,336,0.0,2.0,75,-99.99,,,-99.99,,2013-02-08 15:02:00,
2013-02-08 07:11:00,19.0,13.0,-100.00,NNW,336,0.0,2.0,75,-99.99,,,-99.99,,2013-02-08 15:11:00,
2013-02-08 07:21:00,20.0,14.0,-100.00,WSW,250,1.0,2.0,77,-99.99,,,-99.99,,2013-02-08 15:21:00,
2013-02-08 07:32:00,20.0,14.0,-100.00,WSW,250,1.0,2.0,77,-99.99,,,-99.99,,2013-02-08 15:32:00,
2013-02-08 07:42:00,20.0,15.0,-100.00,WSW,258,3.0,5.0,79,-99.99,,,-99.99,,2013-02-08 15:42:00,
2013-02-08 07:52:00,20.0,15.0,-100.00,WSW,258,3.0,5.0,79,-99.99,,,-99.99,,2013-02-08 15:52:00,
2013-02-08 08:01:00,21.0,16.0,-100.00,SW,232,2.0,4.0,80,-99.99,,,-99.99,,2013-02-08 16:01:00,
2013-02-08 08:11:00,21.0,16.0,-100.00,SW,232,2.0,4.0,80,-99.99,,,-99.99,,2013-02-08 16:11:00,
2013-02-08 08:21:00,21.0,16.0,-100.00,SW,232,2.0,4.0,80,-99.99,,,-99.99,,2013-02-08 16:21:00,
2013-02-08 08:42:00,22.0,17.0,-100.00,WSW,243,3.0,5.0,81,-99.99,,,-99.99,,2013-02-08 16:42:00,
2013-02-08 08:52:00,22.0,17.0,-100.00,WSW,243,3.0,5.0,81,-99.99,,,-99.99,,2013-02-08 16:52:00,
2013-02-08 09:03:00,22.0,17.0,-100.00,SE,137,2.0,5.0,80,-99.99,,,-99.99,,2013-02-08 17:03:00,
2013-02-08 09:12:00,22.0,17.0,-100.00,SE,137,2.0,5.0,80,-99.99,,,-99.99,,2013-02-08 17:12:00,
2013-02-08 09:22:00,24.0,18.0,-100.00,SSE,157,0.0,3.0,77,-99.99,,,-99.99,,2013-02-08 17:22:00,
2013-02-08 09:32:00,25.0,18.0,-100.00,East,93,2.0,9.0,75,-99.99,,,-99.99,,2013-02-08 17:32:00,
2013-02-08 09:42:00,25.0,18.0,-100.00,East,93,2.0,9.0,75,-99.99,,,-99.99,,2013-02-08 17:42:00,
2013-02-08 09:52:00,25.0,18.0,-100.00,East,93,2.0,9.0,75,-99.99,,,-99.99,,2013-02-08 17:52:00,
2013-02-08 10:01:00,25.0,18.0,-100.00,East,93,2.0,9.0,75,-99.99,,,-99.99,,2013-02-08 18:01:00,
2013-02-08 10:24:00,23.0,18.0,-100.00,NE,42,11.0,18.0,78,-99.99,,,-99.99,,2013-02-08 18:24:00,
2013-02-08 10:34:00,23.0,18.0,-100.00,NE,42,11.0,18.0,78,-99.99,,,-99.99,,2013-02-08 18:34:00,
2013-02-08 10:43:00,24.0,18.0,-100.00,NE,45,8.0,18.0,76,-99.99,,,-99.99,,2013-02-08 18:43:00,
2013-02-08 10:52:00,24.0,18.0,-100.00,NE,45,8.0,18.0,76,-99.99,,,-99.99,,2013-02-08 18:52:00,
2013-02-08 11:01:00,24.0,19.0,-100.00,ENE,68,9.0,17.0,80,-99.99,,,-99.99,,2013-02-08 19:01:00,
2013-02-08 11:11:00,24.0,19.0,-100.00,ENE,68,9.0,17.0,80,-99.99,,,-99.99,,2013-02-08 19:11:00,
2013-02-08 11:22:00,25.0,19.0,-100.00,ENE,78,4.0,11.0,76,-99.99,,,-99.99,,2013-02-08 19:22:00,
2013-02-08 11:32:00,25.0,19.0,-100.00,ENE,78,4.0,11.0,76,-99.99,,,-99.99,,2013-02-08 19:32:00,
2013-02-08 11:42:00,27.0,19.0,-100.00,ENE,72,8.0,18.0,69,-99.99,,,-99.99,,2013-02-08 19:42:00,
2013-02-08 11:52:00,27.0,19.0,-100.00,ENE,72,8.0,18.0,69,-99.99,,,-99.99,,2013-02-08 19:52:00,
2013-02-08 12:01:00,27.0,19.0,-100.00,ENE,72,8.0,18.0,69,-99.99,,,-99.99,,2013-02-08 20:01:00,
2013-02-08 12:21:00,29.0,19.0,-100.00,East,89,6.0,15.0,66,-99.99,,,-99.99,,2013-02-08 20:21:00,
2013-02-08 12:31:00,29.0,19.0,-100.00,East,89,6.0,15.0,66,-99.99,,,-99.99,,2013-02-08 20:31:00,
2013-02-08 12:41:00,27.0,18.0,-100.00,ENE,75,9.0,18.0,67,-99.99,,,-99.99,,2013-02-08 20:41:00,
2013-02-08 12:52:00,27.0,18.0,-100.00,ENE,75,9.0,18.0,67,-99.99,,,-99.99,,2013-02-08 20:52:00,
2013-02-08 13:01:00,28.0,16.0,-100.00,ENE,61,9.0,16.0,61,-99.99,,,-99.99,,2013-02-08 21:01:00,
2013-02-08 13:11:00,28.0,16.0,-100.00,ENE,61,9.0,16.0,61,-99.99,,,-99.99,,2013-02-08 21:11:00,
2013-02-08 13:21:00,28.0,16.0,-100.00,NNE,31,9.0,18.0,58,-99.99,,,-99.99,,2013-02-08 21:21:00,
2013-02-08 13:32:00,28.0,16.0,-100.00,NNE,31,9.0,18.0,58,-99.99,,,-99.99,,2013-02-08 21:32:00,
2013-02-08 13:42:00,28.0,16.0,-100.00,NNE,31,9.0,18.0,58,-99.99,,,-99.99,,2013-02-08 21:42:00,
2013-02-08 14:32:00,30.0,15.0,-100.00,NNE,17,7.0,21.0,53,-99.99,,,-99.99,,2013-02-08 22:32:00,
2013-02-08 14:42:00,30.0,15.0,-100.00,NNE,17,7.0,21.0,53,-99.99,,,-99.99,,2013-02-08 22:42:00,
2013-02-08 14:52:00,29.0,15.0,-100.00,NNE,21,9.0,17.0,56,-99.99,,,-99.99,,2013-02-08 22:52:00,
2013-02-08 15:01:00,29.0,15.0,-100.00,NNE,21,9.0,17.0,56,-99.99,,,-99.99,,2013-02-08 23:01:00,
2013-02-08 15:11:00,28.0,15.0,-100.00,NE,35,7.0,13.0,57,-99.99,,,-99.99,,2013-02-08 23:11:00,
2013-02-08 15:21:00,28.0,15.0,-100.00,NE,35,7.0,13.0,57,-99.99,,,-99.99,,2013-02-08 23:21:00,
2013-02-08 15:31:00,28.0,15.0,-100.00,NE,44,8.0,17.0,58,-99.99,,,-99.99,,2013-02-08 23:31:00,
2013-02-08 15:41:00,28.0,15.0,-100.00,NE,44,8.0,17.0,58,-99.99,,,-99.99,,2013-02-08 23:41:00,
2013-02-08 15:52:00,28.0,15.0,-100.00,NNE,28,9.0,16.0,57,-99.99,,,-99.99,,2013-02-08 23:52:00,
2013-02-08 16:02:00,28.0,15.0,-100.00,NNE,28,9.0,16.0,57,-99.99,,,-99.99,,2013-02-09 00:02:00,
2013-02-08 16:11:00,28.0,14.0,-100.00,NE,54,8.0,14.0,56,-99.99,,,-99.99,,2013-02-09 00:11:00,
2013-02-08 16:21:00,28.0,14.0,-100.00,NE,54,8.0,14.0,56,-99.99,,,-99.99,,2013-02-09 00:21:00,
2013-02-08 16:32:00,28.0,13.0,-100.00,NE,42,6.0,15.0,53,-99.99,,,-99.99,,2013-02-09 00:32:00,
2013-02-08 16:42:00,28.0,13.0,-100.00,NE,42,6.0,15.0,53,-99.99,,,-99.99,,2013-02-09 00:42:00,
2013-02-08 16:52:00,28.0,13.0,-100.00,NNE,25,5.0,11.0,53,-99.99,,,-99.99,,2013-02-09 00:52:00,
2013-02-08 17:01:00,28.0,13.0,-100.00,NNE,25,5.0,11.0,53,-99.99,,,-99.99,,2013-02-09 01:01:00,
2013-02-08 17:52:00,27.0,13.0,-100.00,NNE,32,8.0,19.0,56,-99.99,,,-99.99,,2013-02-09 01:52:00,
2013-02-08 18:01:00,27.0,13.0,-100.00,NNE,32,8.0,19.0,56,-99.99,,,-99.99,,2013-02-09 02:01:00,
2013-02-08 18:11:00,26.0,13.0,-100.00,NNE,13,8.0,23.0,57,-99.99,,,-99.99,,2013-02-09 02:11:00,
2013-02-08 18:21:00,26.0,13.0,-100.00,NNE,13,8.0,23.0,57,-99.99,,,-99.99,,2013-02-09 02:21:00,
2013-02-08 18:32:00,26.0,12.0,-100.00,North,350,10.0,24.0,56,-99.99,,,-99.99,,2013-02-09 02:32:00,
2013-02-08 18:41:00,26.0,12.0,-100.00,North,350,10.0,24.0,56,-99.99,,,-99.99,,2013-02-09 02:41:00,
2013-02-08 18:52:00,26.0,13.0,-100.00,NNE,27,10.0,27.0,58,-99.99,,,-99.99,,2013-02-09 02:52:00,
2013-02-08 19:01:00,26.0,13.0,-100.00,NNE,27,10.0,27.0,58,-99.99,,,-99.99,,2013-02-09 03:01:00,
2013-02-08 19:32:00,25.0,12.0,-100.00,NNE,27,11.0,23.0,55,-99.99,,,-99.99,,2013-02-09 03:32:00,
2013-02-08 19:42:00,25.0,12.0,-100.00,NNE,27,11.0,23.0,55,-99.99,,,-99.99,,2013-02-09 03:42:00,
2013-02-08 20:11:00,25.0,12.0,-100.00,NNE,13,15.0,27.0,57,-99.99,,,-99.99,,2013-02-09 04:11:00,
2013-02-08 20:22:00,25.0,12.0,-100.00,NNE,13,15.0,27.0,57,-99.99,,,-99.99,,2013-02-09 04:22:00,
2013-02-08 21:12:00,24.0,13.0,-100.00,North,3,17.0,24.0,63,-99.99,,,-99.99,,2013-02-09 05:12:00,
2013-02-08 21:22:00,24.0,13.0,-100.00,North,3,17.0,24.0,63,-99.99,,,-99.99,,2013-02-09 05:22:00,
2013-02-08 21:31:00,23.0,14.0,-100.00,NNE,20,12.0,18.0,66,-99.99,,,-99.99,,2013-02-09 05:31:00,
2013-02-08 21:41:00,23.0,14.0,-100.00,NNE,20,12.0,18.0,66,-99.99,,,-99.99,,2013-02-09 05:41:00,
2013-02-08 21:52:00,23.0,13.0,-100.00,NNE,13,9.0,17.0,63,-99.99,,,-99.99,,2013-02-09 05:52:00,
2013-02-08 22:01:00,23.0,13.0,-100.00,NNE,13,9.0,17.0,63,-99.99,,,-99.99,,2013-02-09 06:01:00,
2013-02-08 22:11:00,23.0,12.0,-100.00,NNW,335,4.0,11.0,62,-99.99,,,-99.99,,2013-02-09 06:11:00,
2013-02-08 22:21:00,23.0,12.0,-100.00,NNW,335,4.0,11.0,62,-99.99,,,-99.99,,2013-02-09 06:21:00,
2013-02-08 22:31:00,23.0,11.0,-100.00,NNE,23,6.0,15.0,58,-99.99,,,-99.99,,2013-02-09 06:31:00,
2013-02-08 22:41:00,23.0,11.0,-100.00,NNE,23,6.0,15.0,58,-99.99,,,-99.99,,2013-02-09 06:41:00,
2013-02-08 23:11:00,23.0,11.0,-100.00,North,6,8.0,17.0,59,-99.99,,,-99.99,,2013-02-09 07:11:00,
2013-02-08 23:21:00,23.0,11.0,-100.00,North,6,8.0,17.0,59,-99.99,,,-99.99,,2013-02-09 07:21:00,
2013-02-08 23:31:00,22.0,11.0,-100.00,ENE,58,3.0,9.0,63,-99.99,,,-99.99,,2013-02-09 07:31:00,
2013-02-08 23:42:00,22.0,11.0,-100.00,ENE,58,3.0,9.0,63,-99.99,,,-99.99,,2013-02-09 07:42:00,
2013-02-08 23:52:00,23.0,12.0,-100.00,NNE,24,7.0,16.0,62,-99.99,,,-99.99,,2013-02-09 07:52:00,